Tracking 18980 objects as of 23-Feb-2018
HD Live streaming from Space Station
objects crossing your sky now

INSAT 1C

Track INSAT 1C now!
INSAT 1C is classified as:


NORAD ID: 19330
Int'l Code: 1988-063A
Perigee: 35,780.3 km
Apogee: 35,826.1 km
Inclination: 14.8 °
Period: 1,436.6 minutes
Semi major axis: 42174 km
RCS: 1.9952 m2 (large)
Launch date: July 21, 1988
Source: India (IND)
Launch site: FRENCH GUIANA (FRGUI)
aabbcc
Your satellite tracking list
Your tracking list is empty




NASA's NSSDC Master Catalog

Two Line Element Set (TLE):
1 19330U 88063A   18053.88729861 -.00000003 +00000-0 +00000-0 0  9991
2 19330 014.7882 353.5422 0005433 020.3086 161.9666 01.00238125089897
Source of the keplerian elements: AFSPC